Date,TemperatureHighF,TemperatureAvgF,TemperatureLowF,DewpointHighF,DewpointAvgF,DewpointLowF,HumidityHigh,HumidityAvg,HumidityLow,PressureMaxIn,PressureMinIn,WindSpeedMaxMPH,WindSpeedAvgMPH,GustSpeedMaxMPH,PrecipitationSumIn
2013-12-1,33.5,27.7,19.1,24.1,17.9,-99.9,83,72,65,30.61,30.36,11,2,12,0.00
2013-12-2,40.1,28.7,20.3,24.0,14.7,-99.9,81,66,48,30.42,29.99,8,2,10,0.00
2013-12-3,43.5,36.9,29.3,22.3,18.3,15.1,62,48,33,30.00,29.54,13,3,14,0.00
2013-12-4,37.0,25.1,6.0,27.9,9.9,-99.9,87,62,48,30.21,29.49,16,5,28,0.14
2013-12-5,23.3,12.6,0.7,9.6,-2.0,-99.9,70,56,43,30.29,30.16,7,1,8,0.01
2013-12-6,22.2,13.9,6.5,3.0,-2.5,-8.0,56,48,35,30.56,30.25,5,2,5,0.00
2013-12-7,25.6,21.8,17.8,10.8,3.8,-5.0,60,46,33,30.38,29.93,12,4,17,0.09
2013-12-8,21.6,12.1,-2.8,8.5,-5.3,-99.9,64,48,36,30.51,29.91,9,3,24,0.02
2013-12-9,17.8,4.3,-3.5,-4.0,-13.1,-99.9,63,47,33,30.98,30.45,8,2,17,0.00
2013-12-10,28.5,11.8,-1.8,1.9,-4.5,-13.0,63,49,28,31.05,30.63,8,2,10,0.00
2013-12-11,36.3,20.4,7.9,10.6,2.2,-9.1,61,46,31,30.89,30.59,6,2,6,0.00
2013-12-12,45.8,29.7,15.9,16.9,8.4,2.2,60,43,19,30.79,30.16,9,1,9,0.00
2013-12-13,33.1,28.5,19.4,17.0,12.7,7.8,61,51,37,30.30,30.08,7,2,8,0.00
2013-12-14,35.5,22.6,10.7,14.5,8.3,0.9,71,55,34,30.78,30.33,8,2,10,0.00
2013-12-15,40.9,27.0,16.1,19.3,13.6,6.7,71,58,39,30.74,30.47,5,2,7,0.00
2013-12-16,47.3,33.5,23.0,21.0,16.2,11.9,66,50,32,30.61,30.36,8,2,8,0.00
2013-12-17,47.6,32.1,20.6,21.3,15.3,10.3,68,52,26,30.68,30.41,6,1,7,0.00
2013-12-18,49.2,36.3,26.6,18.5,14.2,7.9,61,43,19,30.41,29.93,6,2,7,0.00
2013-12-19,45.8,39.3,30.7,23.5,16.4,8.2,67,40,24,29.90,29.64,6,2,12,0.00
2013-12-20,36.5,31.8,22.5,27.8,22.5,16.1,81,69,55,29.87,29.74,3,1,7,0.02
2013-12-21,29.8,23.1,15.7,18.9,13.7,8.0,77,67,52,30.06,29.76,9,3,14,0.00
2013-12-22,31.2,23.2,11.9,10.7,7.0,0.7,65,50,39,30.56,30.06,11,4,12,0.00
2013-12-23,36.2,26.7,14.1,17.8,11.2,3.1,77,53,36,30.76,30.41,9,2,16,0.00
2013-12-24,41.3,28.3,17.7,21.2,14.7,6.4,76,58,37,30.62,30.34,9,3,12,0.00
2013-12-25,38.9,24.2,14.3,11.5,3.6,-99.9,66,47,21,30.75,30.49,6,2,7,0.00
2013-12-26,43.9,28.1,17.0,15.0,9.2,4.9,66,47,24,30.74,30.43,5,2,10,0.00
2013-12-27,47.1,31.9,21.1,17.4,11.4,-99.9,63,48,27,30.63,30.32,8,2,8,0.00
2013-12-28,41.3,31.0,22.9,17.8,12.7,-99.9,65,51,35,30.32,30.02,8,1,8,0.00
2013-12-29,39.2,26.4,17.0,19.5,10.5,-99.9,75,56,37,30.46,30.04,7,2,7,0.00
2013-12-30,38.5,27.3,17.8,12.9,6.7,-2.5,66,43,26,30.64,30.31,8,2,11,0.00
2013-12-31,44.1,31.1,17.7,24.6,10.8,-99.9,69,49,30,30.58,30.16,9,2,12,0.00